This is the latest recevied weather packets stored in our database for station/object JG6YPS-13. If no packets are shown the sender has not sent any weather packets the latest 10 day(s).
| Time | Temp. | Humidity | Pressure | Rain* | Wind** | Luminosity | Snow |
|---|---|---|---|---|---|---|---|
| 1777859927 | 22.78° C | 53% | 1013.4 hPa | 0 mm | - | - | - |
| 1777859327 | 23.89° C | 52% | 1013.7 hPa | 0 mm | - | - | - |
| 1777858727 | 22.78° C | 54% | 1013.6 hPa | 0 mm | - | - | - |
| 1777858127 | 22.22° C | 57% | 1013.6 hPa | 0 mm | - | - | - |
| 1777857528 | 22.22° C | 55% | 1013.6 hPa | 0 mm | - | - | - |
| 1777856928 | 22.78° C | 53% | 1013.6 hPa | 0 mm | - | - | - |
| 1777856328 | 22.78° C | 55% | 1013.5 hPa | 0 mm | - | - | - |
| 1777855728 | 22.22° C | 53% | 1013.4 hPa | 0 mm | - | - | - |
| 1777855129 | 21.67° C | 55% | 1013.4 hPa | 0 mm | - | - | - |
| 1777854529 | 20.56° C | 56% | 1013.3 hPa | 0 mm | - | - | - |
| 1777853930 | 21.67° C | 57% | 1013 hPa | 0 mm | - | - | - |
| 1777853330 | 20.56° C | 62% | 1013.3 hPa | 0 mm | - | - | - |
| 1777852730 | 20° C | 63% | 1013.2 hPa | 0 mm | - | - | - |
| 1777852130 | 20.56° C | 61% | 1012.9 hPa | 0 mm | - | - | - |
| 1777851531 | 18.89° C | 67% | 1012.8 hPa | 0 mm | - | - | - |
| 1777850931 | 19.44° C | 65% | 1012.4 hPa | 0 mm | - | - | - |
| 1777850331 | 20.56° C | 65% | 1012.2 hPa | 0 mm | - | - | - |
| 1777849731 | 20° C | 65% | 1011.9 hPa | 0 mm | - | - | - |
| 1777849131 | 20.56° C | 68% | 1011.9 hPa | 0 mm | - | - | - |
| 1777848532 | 18.89° C | 66% | 1011.8 hPa | 0 mm | - | - | - |
| 1777847932 | 18.89° C | 71% | 1011.7 hPa | 0 mm | - | - | - |
| 1777847332 | 18.89° C | 71% | 1011.6 hPa | 0 mm | - | - | - |
| 1777846733 | 18.89° C | 72% | 1011.2 hPa | 0 mm | - | - | - |
| 1777846133 | 18.89° C | 73% | 1011.1 hPa | 0 mm | - | - | - |
| 1777845534 | 18.33° C | 75% | 1010.8 hPa | 0 mm | - | - | - |
* Rain latest hour (hover to see other rain measurements)
** Current wind speed in m/s (hover to see current wind gust speed)